METEOR 1-29 (11251 NORAD) Tracking and Keplerian Element Data

This shows tracking and keplerian element data for the satellite.

Feedback or suggestion? Click here.




ElementValue
Catalog11251
NameMETEOR 1-29
Epoch Orbit89696
Epoch Day16.16022164
Epoch Year2022
RAAN337.7452
Inclination97.7095
Eccentricity0.0013504
Argument of Perigee209.152
Mean Anonmoly150.8973
Mean Motion15.4134945
Decay Rate6.501E-05
L11 11251U 79005A 22016.16022164 .00006501 00000+0 15764-3 0 9991
L22 11251 97.7095 337.7452 0013504 209.1520 150.8973 15.41349450896969

Live tracking and technical data element details for METEOR 1-29 (NORAD 11251). METEOR 1-29 can be tracked NOW for your location showing map with azimuth and elevation plus other details from your city location.

Track the satellite on the map from your city or location and see movement details for azimuth, elevation, latitude, longitude, range, height, and movement on the map or in text.







IsCatalogInMostPopularTable: catalog: 11251, numindb: 286
Update: records affected: 1



GetName: 11251 METEOR 1-29

Hit Count: updated at: Mon, 17 Jan 2022 01:36:55 GMT